Starlink 31146

operational
NORAD ID: 58769 Int'l Des: 2024-011 Owner: SPXS Country: US Constellation: starlink
LEOCIRCULAR

Über Starlink 31146

Beschreibung wird geladen...

Live-Position

3D-Globus wird geladen...

Nächste Überflüge

Höhenverlauf

Altitude vs Time

uPlot chart will show altitude changes over time

Zweizeiliger Elementsatz

1 58769U 24011E 25306.14554461 .00000412 00000-0 26051-4 0 9994
2 58769 53.1620 246.0428 0000982 99.6056 260.5056 15.30192076100744
Epoch: 2. Nov. 2025 • Age: 25 hours

Aktueller Status

Höhe 492.8 km
Geschwindigkeit 7.62 km/s
Subsatellitenpunkt -49.40°S, 17.47°E
Startdatum 14. Jan. 2024
Alter 1.8 years
Typ internet

Technische Details

Klassifizierung Payload
Masse 730.00 kg
Trockenmasse 700.00 kg
Gesamtmasse 730.00 kg
Länge 0.30 m
Durchmesser 4.10 m
Spannweite 29.00 m
Form Box + pan
Hersteller SPXS
Bus-Typ Starlink V2M
Phasenstatus In Orbit
Besitzer/Staat SPXS/US

Große Konstellationen

Loading constellations...